Location: Unspecified
(41.5000°N, 0.0000°E)
Time: 11:35:55
(UTC+00:00)

Vanguard 2 - Pass Details

Date: 19 June 2019
Orbit: 553 x 2938 km, 32.9° (Epoch: 22 July)

Event Time Altitude Azimuth Distance (km) Brightness Sun altitude
Rises 11:11:52 0° 258° (WSW) 3,928 11.1 69.2°
Reaches altitude 10° 11:14:13 10° 253° (WSW) 3,215 10.8 69.4°
Maximum altitude 11:22:18 54° 179° (S) 2,058 11.4 70.2°
Drops below altitude 10° 11:35:36 10° 108° (ESE) 5,128 12.0 71.1°
Sets 11:40:24 0° 105° (ESE) 6,414 12.4 71.4°
